Helicity
52 61 66 96 96 162 71 83 120 88 91 143 220 196 152 169 117 64 61 145 243 318 401 297 136 112 88 104 123 100 100 111 116 94 84 108 117 110 121 103 110 130 136 135 172 200 219 193 212
63 78 115 133 152 146 60 116 102 106 135 157 220 200 152 122 143 118 125 136 245 319 363 285 156 115 116 104 121 133 143 159 148 143 142 136 137 131 128 128 136 145 149 150 151 162 172 182 246
68 102 142 176 198 204 113 100 85 154 158 175 170 142 118 106 140 175 152 206 276 331 321 213 149 137 126 123 131 130 146 165 171 176 146 143 135 136 154 135 132 161 169 177 165 153 153 143 160
104 140 181 212 172 115 138 111 105 171 156 162 181 141 151 145 111 157 233 267 323 353 340 264 226 181 147 149 159 167 171 189 191 174 168 158 148 134 146 160 148 166 170 164 156 163 152 147 157
147 173 216 211 128 140 110 110 113 132 133 152 181 167 151 128 161 188 277 303 365 400 390 338 262 233 190 198 216 210 180 175 178 175 171 178 163 167 162 155 153 159 144 181 145 145 133 135 155
180 191 234 154 108 112 80 111 163 154 161 167 188 173 135 137 181 189 266 313 354 386 403 383 270 260 239 252 246 200 160 113 130 136 161 159 185 183 179 197 178 182 176 161 147 143 157 141 132
214 245 189 144 76 62 85 127 169 175 197 154 180 141 135 144 151 208 269 327 351 371 394 398 378 328 263 251 237 213 170 121 106 99 116 153 151 176 206 201 218 200 190 182 170 155 144 151 137
230 252 222 185 151 60 112 120 167 196 166 215 223 128 112 101 188 264 305 327 340 358 368 368 365 364 380 297 222 210 188 171 150 136 132 130 156 174 147 178 198 207 228 221 200 194 179 190 182
244 282 224 277 242 183 151 117 155 165 217 245 235 215 149 175 252 302 328 340 348 347 347 346 346 355 368 353 273 258 236 208 194 165 147 132 123 155 182 176 164 195 223 227 228 233 236 227 219
305 304 243 235 216 172 119 112 112 144 178 195 202 214 205 256 230 243 286 317 317 329 335 300 303 310 331 294 272 254 224 207 180 166 168 172 163 133 151 174 202 227 205 204 222 235 244 239 207
268 280 230 189 159 147 135 139 147 148 142 156 161 260 225 246 243 263 266 285 293 290 300 275 284 280 273 251 230 218 210 206 205 194 170 151 138 135 134 125 136 148 202 172 178 202 211 228 210
265 198 217 176 151 171 182 194 173 171 159 134 116 222 287 268 266 277 280 296 300 310 312 296 276 281 280 266 243 225 211 196 194 183 167 157 168 178 170 142 129 111 101 127 154 153 159 181 199
209 172 175 173 157 169 201 154 147 112 135 195 210 252 270 273 267 263 290 309 318 339 321 305 306 306 286 273 243 218 210 195 166 163 151 130 127 132 135 142 135 139 134 122 127 139 159 177 182
206 167 136 127 138 168 166 168 203 89 153 235 251 249 251 267 302 331 357 331 343 336 319 325 320 301 283 271 249 236 221 197 198 201 186 171 140 116 101 95 105 118 116 112 118 126 134 151 156
193 155 145 150 157 175 157 179 204 201 202 179 198 204 223 253 304 318 318 334 335 327 353 335 328 308 298 284 266 244 220 201 195 171 162 151 143 139 127 120 119 103 102 119 125 127 132 154 143
186 172 187 159 141 155 186 224 76 105 152 142 141 177 207 229 241 266 294 306 359 401 364 343 327 308 303 288 267 246 226 201 178 166 137 124 119 121 117 125 143 149 144 120 102 121 130 168 180
223 207 184 185 116 197 183 167 83 93 74 72 88 129 174 199 215 264 292 341 405 404 400 383 350 328 311 296 284 257 225 189 143 121 100 78 72 74 68 77 101 129 145 162 145 143 117 186 194
205 216 178 151 97 132 180 162 100 116 107 83 104 155 212 254 266 317 327 357 388 407 405 404 380 354 352 352 335 300 247 199 147 114 82 63 61 47 26 20 25 37 51 69 64 79 96 163 205
186 177 172 172 139 150 165 168 121 116 161 133 132 222 270 283 324 345 383 400 418 422 452 412 402 375 383 358 309 262 200 167 163 136 102 86 71 52 43 29 25 22 18 3 10 -28 -15 58 145
165 172 152 155 131 105 101 83 115 151 229 255 167 150 208 309 341 370 400 417 401 438 420 426 416 373 312 297 295 273 233 212 176 145 125 95 76 66 66 67 63 52 25 26 12 -4 -39 -26 60
193 206 195 145 131 92 103 20 -7 42 67 126 175 130 148 257 295 318 349 377 391 425 461 436 379 341 323 310 321 346 310 266 205 149 124 112 92 89 80 83 76 66 47 40 17 5 2 -6 24
112 68 99 126 126 79 145 81 89 91 108 167 142 140 88 176 209 251 272 299 349 407 428 399 357 317 300 286 278 234 225 197 166 143 123 109 112 97 88 73 63 56 44 51 34 31 10 5 23
112 125 124 132 127 154 169 203 109 126 126 225 233 214 174 118 143 157 200 252 297 386 412 365 330 297 265 244 242 252 248 227 193 170 145 133 121 109 90 80 75 78 65 59 61 65 67 49 37
210 166 159 204 212 215 120 131 76 56 55 155 135 130 49 69 91 108 146 191 271 301 337 331 295 266 259 252 230 219 211 203 194 170 153 137 118 105 96 84 78 71 73 77 79 90 115 119 112
199 219 240 212 291 215 169 126 73 85 72 124 214 127 24 -24 49 145 180 187 209 220 264 300 283 271 256 247 223 210 204 186 167 148 138 120 106 88 82 79 80 74 88 101 110 119 125 124 118
177 249 285 330 339 295 171 141 132 160 176 240 211 215 174 142 115 136 110 139 154 188 230 269 279 286 247 235 235 244 233 205 168 138 126 112 94 79 74 76 84 98 110 116 120 119 121 109 116
179 220 94 186 126 252 176 224 279 401 375 348 280 245 194 117 43 16 45 79 107 155 212 287 323 312 270 248 246 238 224 199 178 157 132 103 90 72 59 78 96 113 121 119 113 116 112 104 102
61 50 83 104 179 187 198 173 207 381 333 253 196 103 -64 -150 -126 -31 44 83 117 157 229 319 321 307 289 258 231 198 173 155 139 126 103 89 86 89 92 98 106 106 100 91 82 85 82 83 89
172 186 150 174 196 263 282 196 195 149 23 -7 -176 -220 -193 -108 -46 15 71 112 135 174 225 290 315 311 288 264 248 216 180 145 118 99 89 77 85 90 89 92 85 77 66 63 65 67 71 74 83
162 131 153 206 169 203 256 270 45 -1 -35 -61 -142 -137 -56 -33 -17 39 93 123 153 176 210 251 284 285 267 250 226 184 170 152 126 102 95 106 91 87 78 76 68 62 61 59 59 62 68 80 87
Wind_Speed
31 25 20 19 12 27 5 5 40 8 16 26 20 17 6 24 13 13 18 21 12 9 11 11 14 14 16 18 21 23 25 25 25 28 28 27 26 26 27 28 28 26 26 27 28 28 29 30 27
27 21 22 20 17 12 7 18 9 9 30 22 22 27 26 22 27 23 16 11 11 10 10 9 13 15 13 16 19 20 22 23 23 25 27 26 26 26 27 28 29 28 27 28 28 30 30 30 30
24 23 20 19 21 12 22 20 12 31 22 24 22 28 27 28 27 15 23 7 8 10 11 9 12 13 12 16 19 20 18 21 23 24 26 26 26 25 26 28 28 28 28 29 29 29 31 31 29
22 24 33 24 13 24 28 38 27 23 25 26 25 33 33 31 28 16 5 5 5 8 11 9 11 12 12 15 19 19 19 20 22 24 25 27 26 26 26 28 28 29 30 30 29 30 31 31 30
24 28 32 36 21 40 35 36 23 23 26 25 21 34 35 32 24 10 7 4 3 8 11 9 9 10 11 14 17 18 19 21 22 23 24 25 28 28 28 30 31 31 31 31 31 30 31 32 33
24 31 39 23 28 44 41 34 27 28 31 30 28 34 35 29 15 4 4 6 2 5 10 11 8 9 9 12 15 17 18 20 22 23 25 26 27 28 29 32 33 33 34 34 34 32 32 33 33
27 34 42 49 53 53 44 27 28 28 28 29 31 32 35 24 12 1 2 2 2 6 8 11 13 10 9 13 15 17 17 19 21 24 25 27 28 29 31 33 35 35 36 36 36 35 33 34 34
30 36 45 44 50 53 42 32 44 30 32 36 29 37 43 23 6 3 3 3 5 7 7 9 12 14 15 15 15 18 19 20 22 24 25 26 28 30 32 35 37 37 36 37 37 37 36 35 36
30 45 45 42 46 50 41 38 41 40 39 39 33 38 41 11 3 4 8 11 11 12 11 10 9 11 13 17 18 20 21 22 23 24 25 27 29 31 33 34 36 36 37 38 39 39 39 37 37
35 47 49 46 44 53 46 41 42 42 41 42 43 41 27 6 8 10 12 14 14 13 11 10 11 12 13 17 18 20 21 23 24 25 27 29 30 31 33 36 37 39 39 39 40 40 39 39 39
42 50 51 54 47 48 52 51 41 45 47 41 39 32 21 14 16 17 17 17 16 14 15 13 13 14 15 15 16 18 20 23 25 27 28 29 31 33 35 37 38 39 40 40 40 41 41 40 41
49 48 51 58 53 53 57 50 52 43 49 49 38 25 22 23 24 23 21 20 19 17 16 15 14 14 14 16 18 18 19 22 25 27 28 30 32 34 37 38 39 39 39 40 41 40 40 40 41
44 51 51 50 53 55 55 59 61 56 48 49 40 31 29 28 27 26 24 22 21 21 20 18 15 14 14 15 17 19 21 22 23 27 30 31 32 34 36 37 39 40 41 41 42 43 43 44 44
50 52 54 55 55 54 60 65 55 56 46 43 40 38 34 32 31 29 27 26 25 24 23 20 18 15 15 18 19 19 20 22 25 29 32 33 34 35 36 37 40 41 42 42 42 43 44 45 46
57 69 69 60 57 58 52 71 60 60 52 50 46 42 38 36 33 32 30 28 27 25 23 22 20 19 19 19 20 21 22 23 26 29 31 32 34 36 38 40 42 42 44 44 45 45 45 46 46
61 63 70 57 50 52 47 82 64 53 49 51 47 43 40 37 33 30 28 27 27 26 24 22 21 20 19 19 20 21 23 24 27 29 30 31 33 35 38 41 42 43 45 45 46 48 49 50 51
56 70 65 70 47 51 48 68 60 52 51 53 47 45 42 40 35 32 30 29 28 28 27 26 23 22 21 20 21 22 24 25 27 30 30 30 32 36 37 40 42 44 45 48 48 49 48 53 54
65 65 64 65 52 48 59 65 62 57 58 61 60 57 52 49 45 38 35 33 31 30 28 27 26 25 23 22 23 25 27 29 29 31 31 29 33 36 38 40 41 42 44 46 47 47 47 52 56
59 63 69 62 54 64 72 79 77 74 68 71 69 64 62 57 47 40 37 35 34 33 32 30 28 27 26 27 28 30 33 32 34 34 30 32 35 38 40 41 41 42 44 45 46 45 47 52 56
59 71 77 76 63 63 80 96 83 81 81 71 75 76 66 57 50 45 40 39 38 37 36 34 31 29 29 29 32 34 30 36 34 32 33 36 38 40 43 43 43 43 44 45 46 47 49 51 54
60 67 74 83 76 71 89 111 84 66 59 62 69 74 61 51 46 43 43 43 41 41 39 36 34 32 30 30 29 28 30 32 37 37 39 41 41 42 41 42 43 44 44 47 48 50 52 55 54
86 61 70 77 83 97 68 117 82 73 68 69 69 70 65 45 40 37 37 40 41 42 38 36 34 31 29 28 31 31 37 39 41 40 41 42 43 42 43 43 43 44 46 49 51 52 53 55 59
72 63 66 67 76 86 80 87 96 71 78 71 69 62 46 31 27 25 27 30 32 34 36 36 33 32 32 32 32 33 35 37 37 39 42 44 44 43 42 44 46 48 49 51 53 54 56 55 58
58 67 68 66 71 98 81 77 96 75 66 63 58 48 41 30 28 26 24 22 25 26 29 30 30 31 30 30 31 34 36 36 39 42 44 45 45 44 44 46 48 49 51 53 55 56 59 61 61
60 70 92 95 89 98 69 71 81 73 58 50 52 46 35 25 24 21 19 20 21 24 26 27 28 29 27 28 30 33 35 37 39 41 44 45 46 47 48 48 50 51 53 57 59 61 63 63 64
62 61 74 97 92 88 67 84 66 55 40 41 44 45 41 37 32 27 20 17 17 22 26 28 29 29 27 28 29 28 29 32 35 38 40 44 46 47 48 52 52 55 57 60 62 64 64 64 64
62 65 52 72 75 87 77 68 55 44 46 45 43 46 49 46 40 34 28 24 20 18 21 25 27 29 31 30 31 32 33 35 37 39 40 43 45 48 52 53 57 58 60 62 64 66 68 67 67
55 45 66 62 85 89 76 72 61 46 47 47 46 50 51 49 43 36 29 24 21 22 23 26 28 28 28 29 30 33 34 37 38 39 44 45 48 50 53 57 59 61 62 63 64 66 66 67 66
65 70 63 64 66 81 86 71 45 45 40 45 51 51 52 50 46 38 33 30 26 24 24 25 26 27 27 30 32 34 38 40 40 42 45 49 51 54 58 59 61 63 64 63 65 67 68 69 68
57 62 58 70 75 70 73 74 52 40 42 55 60 58 60 56 53 45 39 32 27 23 22 26 32 29 28 31 33 35 36 38 40 41 44 49 54 57 60 62 64 65 66 66 67 68 66 67 68
Wind_Direction
340 349 359 13 21 324 195 200 301 349 336 318 327 330 322 330 353 22 15 345 34 37 332 2 51 33 16 0 323 332 339 343 348 350 348 342 336 340 344 349 348 348 348 343 344 351 353 357 351
341 354 351 357 340 323 290 316 235 292 314 327 318 315 317 318 323 342 354 21 18 14 1 15 49 42 2 9 345 337 340 346 354 354 347 341 334 334 336 341 341 339 342 342 336 340 344 344 341
341 338 338 340 321 260 319 323 314 310 314 316 313 312 315 318 321 336 335 65 29 357 353 49 44 41 5 9 7 356 347 343 347 348 347 327 332 326 331 339 340 339 341 339 331 330 334 335 332
337 331 318 309 259 314 313 319 327 321 313 313 314 308 310 312 323 331 17 77 31 347 340 33 31 12 4 3 2 2 357 350 346 345 344 348 322 321 319 323 317 328 330 335 325 321 321 327 327
330 323 304 305 283 302 309 312 322 316 315 310 307 308 310 319 330 0 105 99 73 325 323 354 22 17 11 358 1 2 359 351 346 346 339 333 345 339 322 322 321 324 321 330 324 321 318 320 321
314 315 302 276 297 305 308 310 307 306 306 310 304 306 312 322 328 4 107 125 7 320 318 326 8 5 360 355 353 354 351 352 357 349 346 342 328 328 334 330 326 321 321 324 322 324 321 321 321
303 302 299 300 301 303 305 313 304 297 297 297 311 306 315 313 313 35 130 150 310 315 313 313 320 331 346 339 340 341 342 343 341 343 342 337 340 330 324 319 325 327 323 321 321 319 315 320 319
304 302 300 301 299 301 306 305 308 299 292 306 304 305 304 307 292 307 305 274 273 286 297 300 305 309 312 320 329 330 335 334 335 333 335 334 334 334 330 329 324 321 325 322 321 321 315 317 316
306 296 293 294 297 301 308 304 309 309 301 297 297 300 307 319 252 270 282 280 269 272 275 281 293 306 312 314 317 320 323 328 331 332 332 331 329 329 329 329 329 329 325 324 323 321 317 316 316
293 292 296 300 300 300 304 302 304 303 299 296 294 298 303 260 217 237 246 246 246 243 255 264 274 289 302 310 317 319 322 322 324 327 329 328 327 328 325 326 323 323 324 325 323 321 319 315 311
295 289 297 299 301 303 301 300 301 300 296 295 290 284 279 256 243 247 253 241 231 239 257 255 264 278 288 301 312 318 320 320 320 320 321 321 322 323 324 325 324 323 322 321 320 318 317 316 311
295 297 296 300 301 300 297 301 298 291 297 302 294 286 270 259 251 246 247 240 234 235 245 251 257 267 280 293 300 308 314 317 319 323 326 327 325 324 324 324 321 321 321 321 320 319 319 318 316
297 301 303 302 300 299 300 296 294 296 296 297 298 286 270 263 260 261 260 253 247 243 247 248 249 258 271 283 294 299 304 309 315 320 322 324 325 325 327 327 326 324 321 320 318 317 315 313 312
309 308 304 303 301 301 297 297 297 301 300 294 289 283 275 266 260 264 257 248 242 245 246 250 252 254 263 276 286 293 301 307 311 315 318 321 321 320 321 322 323 323 323 322 321 320 317 315 312
306 301 300 298 300 297 302 293 292 298 299 295 291 286 279 272 265 258 253 246 237 241 242 245 250 257 262 271 282 288 297 302 306 312 316 318 321 320 319 316 316 318 319 319 319 319 318 315 314
305 304 300 307 305 303 300 291 303 305 301 297 294 290 284 276 266 264 254 247 242 241 238 245 253 253 259 268 278 287 294 299 304 308 314 317 320 321 318 315 315 317 317 316 314 313 311 310 309
305 299 301 303 305 304 295 298 304 308 304 301 298 294 289 284 274 268 259 251 240 235 237 245 247 249 256 267 277 284 291 296 300 306 308 311 315 316 317 315 314 314 315 314 312 312 311 309 307
303 302 304 304 311 305 299 294 298 303 302 299 297 293 287 281 274 268 260 255 248 240 238 245 248 252 256 264 274 282 289 294 298 301 304 308 311 312 313 313 313 315 314 314 314 314 313 312 308
307 305 304 307 311 305 300 297 298 301 298 297 296 292 288 284 280 270 260 253 245 240 238 239 241 246 249 257 263 274 280 288 294 297 301 304 307 309 310 311 312 313 314 313 313 311 312 311 310
305 303 302 306 310 305 303 297 299 298 296 294 294 294 290 285 277 268 258 249 241 234 234 236 239 241 251 257 268 277 278 288 292 295 299 302 305 306 308 310 311 313 312 312 313 312 309 309 312
307 304 305 303 308 306 305 298 304 308 309 308 304 299 295 284 276 267 258 248 243 237 234 234 238 242 248 257 269 277 285 287 288 290 295 299 303 306 309 310 311 312 313 311 310 310 309 306 309
304 311 307 306 306 300 311 296 303 307 307 310 310 308 300 291 284 274 260 252 243 241 237 236 237 240 247 254 263 267 276 279 284 288 293 298 302 305 307 309 311 311 310 308 307 308 307 306 304
309 315 311 309 304 304 302 300 301 311 306 308 311 315 316 307 297 284 270 259 251 242 237 237 239 244 251 256 263 270 276 283 285 289 293 297 301 305 307 308 307 308 308 306 306 306 307 307 304
314 311 310 308 304 296 301 299 303 311 314 315 317 318 321 317 312 306 294 277 261 247 239 237 239 249 253 260 267 272 276 281 285 289 292 296 299 302 304 306 307 307 306 306 306 307 306 305 304
314 309 302 299 297 296 308 301 302 312 316 316 317 321 324 336 335 322 303 285 267 245 237 235 240 250 255 262 269 275 280 284 287 290 293 295 297 298 301 303 305 306 306 306 305 305 304 304 303
314 310 300 298 298 299 308 299 309 323 326 322 320 321 324 325 321 315 307 292 270 248 241 242 246 252 258 267 274 282 289 294 296 297 298 298 299 301 303 304 304 305 306 305 305 304 304 303 302
314 308 312 303 301 298 299 302 310 320 322 324 323 320 320 318 317 312 305 297 284 258 241 244 249 257 263 271 279 286 292 295 297 301 303 303 303 303 303 304 304 306 306 306 305 303 302 301 300
312 315 307 306 301 298 301 302 299 310 316 317 319 318 318 317 317 314 307 301 289 274 262 258 257 257 264 272 279 285 293 299 303 304 304 306 306 306 306 306 306 306 306 305 305 303 303 301 301
304 302 300 300 297 298 299 301 310 308 315 321 323 321 320 319 315 312 309 303 294 281 266 255 254 257 265 273 280 285 290 294 301 305 306 306 307 306 305 305 304 304 304 305 303 303 303 301 300
309 305 301 296 298 293 294 293 310 313 315 316 316 314 317 316 312 313 312 307 297 283 270 258 262 260 267 276 282 288 294 299 302 306 310 309 307 306 304 304 303 303 303 303 303 302 303 301 300